Wind_Speed
19 18 17 16 15 16 16 15 15 15 14 13 14 14 13 14 14 14 13 12 12 12 13 13 13 12 12 12 12 12 12 11 11 11 10 10 10 9 8 10 10 8 7 7 7 7 6 5 6 6 6 7 6 7 7 6 6 6 4 5 5 5 5 4 4 7 11 12 12 14 14 14 14 14 14 15 15 15 16 18 17 17 18 18 18
20 19 18 17 16 16 16 15 15 15 15 14 14 14 13 14 14 15 14 14 13 12 13 13 13 13 12 12 12 12 13 12 11 11 11 11 10 10 9 10 9 8 8 8 7 7 6 7 7 6 7 7 7 7 8 8 7 5 4 6 6 6 6 5 5 6 10 12 12 14 14 14 15 15 15 16 16 16 18 18 17 16 17 17 18
19 19 18 17 17 16 16 16 16 15 15 15 15 13 13 13 14 14 14 14 14 14 13 13 13 13 12 12 13 13 13 13 12 12 12 11 11 10 10 10 9 9 9 8 8 8 8 8 8 7 7 6 6 7 7 7 7 7 6 6 5 5 5 6 7 8 10 11 12 13 14 15 16 16 16 15 16 17 18 17 16 16 16 16 17
19 20 18 17 17 16 16 16 16 16 15 15 15 14 13 14 14 14 14 13 13 14 13 13 14 14 13 12 12 13 13 13 12 12 12 12 11 11 10 9 9 9 9 9 9 8 8 8 8 8 7 6 5 6 7 7 7 7 7 7 5 5 6 7 8 9 9 12 14 14 15 16 17 18 16 16 16 16 17 17 17 16 15 15 16
19 20 19 17 17 17 16 16 15 16 15 15 15 15 14 14 14 13 13 12 12 13 13 13 14 14 13 12 13 13 13 13 13 12 12 11 11 11 11 10 9 10 10 9 9 9 9 9 9 8 8 8 7 7 7 8 7 6 6 8 7 6 7 8 10 11 13 15 16 16 16 17 17 17 16 16 18 18 18 18 16 15 15 17 17
18 20 20 18 18 17 17 16 15 15 16 15 15 15 14 14 15 14 13 11 13 14 14 13 14 15 14 13 13 14 14 13 13 13 12 11 12 11 11 11 10 10 10 10 10 10 10 10 10 10 9 9 9 9 8 8 8 8 8 9 8 8 10 11 12 13 14 15 16 16 16 15 16 17 16 18 20 21 22 19 15 14 16 18 19
19 20 21 18 18 19 17 16 16 15 15 15 15 15 14 14 15 15 14 13 13 15 15 14 14 15 14 13 13 14 14 13 13 13 12 11 12 12 11 11 10 10 11 11 10 11 11 12 12 12 12 11 11 10 10 9 9 9 9 9 8 9 10 10 11 13 13 13 14 15 15 16 18 20 21 22 22 20 19 16 14 16 18 20 22
19 20 21 19 19 20 18 17 17 15 15 16 16 15 15 15 16 15 15 15 15 15 16 15 13 13 13 13 12 12 13 13 12 12 12 12 11 11 11 11 11 11 11 11 11 11 12 12 13 13 14 14 14 12 10 9 9 8 8 8 7 7 8 10 11 13 14 14 15 16 17 18 19 21 21 20 18 18 16 14 15 18 20 22 23
19 19 20 18 18 19 19 17 17 15 14 15 16 15 13 14 15 16 15 14 15 14 14 14 13 12 12 12 12 12 13 13 12 13 13 13 11 11 12 11 10 11 12 11 12 12 12 12 13 13 12 13 14 14 12 11 11 11 11 11 11 10 10 10 12 13 14 15 15 16 17 17 18 19 18 16 18 20 18 16 18 20 22 23 23
18 17 18 18 17 18 19 17 16 15 13 13 14 15 13 11 12 14 15 15 15 14 13 13 13 13 12 13 13 12 12 12 14 14 13 12 11 11 12 10 10 11 12 12 12 12 13 13 13 13 12 12 13 13 14 14 14 15 15 16 15 14 14 14 14 15 15 15 15 15 15 15 16 17 17 18 19 19 19 20 21 22 22 21 22
16 15 16 16 14 15 17 16 15 14 13 12 11 12 12 11 10 10 11 13 14 13 12 11 13 13 13 14 14 14 13 13 14 14 14 14 13 11 10 9 9 10 11 12 12 13 13 14 14 14 14 13 12 12 14 15 15 16 16 16 15 15 16 17 17 17 16 15 15 14 14 15 16 16 17 18 18 19 20 21 20 20 20 18 18
13 12 12 12 11 13 14 14 14 14 13 12 12 12 12 12 12 10 10 11 12 13 13 12 13 12 11 12 10 9 11 13 14 14 16 18 17 14 11 9 9 10 11 11 12 12 13 14 14 14 14 11 9 11 15 16 15 16 15 14 14 15 16 18 19 20 19 18 17 17 17 17 18 17 17 16 17 18 19 19 18 18 19 18 19
12 10 9 10 11 13 12 11 12 13 12 11 10 10 10 11 11 11 10 10 10 11 12 12 11 11 10 8 3 1 4 9 12 14 16 17 18 17 14 10 9 11 12 13 13 13 14 14 14 13 12 10 9 9 10 13 16 17 14 13 15 17 18 17 17 19 21 22 22 22 21 20 19 17 15 14 15 17 18 20 20 19 20 21 23
10 9 10 10 11 11 9 9 9 9 10 9 8 7 7 8 9 9 9 8 7 7 9 8 7 7 8 6 3 2 1 3 6 9 11 13 15 15 13 10 9 10 12 14 15 15 14 13 11 10 10 11 13 13 12 11 11 13 12 12 15 16 16 15 14 16 18 21 24 25 24 23 20 17 14 14 15 17 19 21 21 21 22 23 25
9 8 11 12 13 12 10 10 9 7 7 7 7 8 8 8 8 8 6 5 5 6 6 5 6 7 8 6 4 3 4 4 5 7 8 9 10 10 10 9 9 11 12 13 13 12 11 11 11 11 11 12 13 14 14 12 8 8 8 9 11 13 13 12 12 13 14 15 18 21 21 20 17 14 14 16 18 19 20 20 21 22 24 24 22
13 10 9 9 10 11 11 11 9 8 8 8 8 9 10 9 9 8 6 6 7 7 6 7 8 9 9 9 9 8 7 6 7 7 8 9 9 8 7 7 8 9 10 10 10 10 10 11 11 11 13 13 12 12 11 11 9 8 9 9 10 12 11 10 10 10 11 11 12 14 15 15 15 15 17 19 21 22 22 21 21 21 21 21 19
11 10 8 6 5 6 6 7 8 8 10 11 9 9 9 9 9 9 8 6 5 7 10 11 11 10 8 6 7 9 8 7 7 7 8 8 8 7 7 6 6 7 8 9 9 10 11 11 10 10 12 12 11 10 10 10 11 11 11 11 11 11 12 12 12 11 10 11 12 12 13 14 16 18 19 20 20 20 20 21 20 17 16 16 14
9 10 9 7 6 5 4 4 6 8 9 7 6 7 7 7 7 6 7 7 5 5 6 7 7 7 5 4 5 7 8 7 6 6 7 7 7 7 6 5 6 8 9 8 8 7 8 9 9 8 9 9 9 9 10 11 11 11 11 11 11 11 12 13 14 14 14 15 16 16 16 17 18 19 20 20 18 17 17 19 18 14 12 12 13
10 11 11 10 8 8 7 5 5 7 7 4 3 4 3 4 3 3 4 5 5 4 3 3 3 4 4 4 4 4 4 4 5 5 6 6 6 6 5 5 5 7 8 7 6 5 6 8 9 8 8 9 9 10 11 11 11 11 11 11 10 10 11 12 15 17 18 19 18 18 17 17 17 18 18 18 16 14 14 15 13 11 11 13 15
11 12 14 13 12 12 11 8 6 5 5 4 4 5 6 6 7 8 7 6 8 6 3 2 4 5 5 4 2 1 1 1 2 4 4 4 5 3 1 1 2 3 4 4 4 4 4 5 7 8 8 10 10 10 10 10 10 10 10 9 9 11 13 15 16 17 16 15 15 15 15 15 15 14 13 13 12 11 11 12 11 11 12 14 15
14 15 17 17 17 17 15 14 12 9 7 8 8 8 8 8 8 10 10 12 13 12 8 6 6 5 4 2 3 3 3 3 4 4 3 3 2 2 2 1 1 0 2 2 2 4 4 3 4 7 9 10 10 8 8 7 7 7 7 7 8 10 12 13 13 11 11 12 13 14 14 13 12 12 11 10 9 10 12 13 13 14 14 14 14
16 17 17 17 17 17 17 16 15 13 10 10 10 10 10 9 9 10 12 12 12 12 13 12 10 7 5 6 8 8 8 7 6 6 5 5 3 2 2 1 1 1 2 3 2 1 0 0 5 8 9 9 8 7 6 6 7 7 6 6 7 7 7 8 9 9 10 11 12 12 12 11 11 12 11 10 10 11 14 15 14 14 14 13 14
14 15 15 15 15 16 15 14 14 14 12 11 11 12 11 11 10 10 12 12 11 9 9 11 12 9 7 7 6 6 8 9 8 8 8 9 8 4 3 3 3 4 4 5 4 3 3 4 8 10 9 8 8 7 6 6 8 8 8 7 6 4 5 7 8 8 10 11 11 11 11 11 12 12 11 11 12 15 16 15 14 13 13 14 14
10 10 10 11 13 13 12 11 10 11 11 11 11 12 11 8 6 5 5 8 10 9 6 6 9 10 10 11 9 6 7 10 10 11 12 13 13 10 6 5 5 6 8 7 6 6 5 7 9 9 9 8 7 6 5 7 8 8 7 7 6 6 7 7 7 7 9 10 11 10 11 12 13 13 13 14 16 17 16 14 13 12 13 14 14
6 5 6 7 9 9 8 7 5 6 8 9 8 8 8 6 4 3 5 5 7 7 4 3 6 6 6 9 13 11 8 9 10 11 11 12 12 12 10 8 7 8 9 7 6 6 7 7 7 9 9 8 7 5 6 7 7 7 7 6 7 10 9 6 7 9 9 8 10 11 11 12 13 14 14 15 16 16 15 14 14 14 15 16 17
4 3 4 5 5 4 4 4 3 3 5 5 4 4 4 5 5 3 3 3 4 4 2 2 4 4 2 5 10 9 7 9 11 10 8 8 10 11 10 8 7 7 7 6 6 7 8 7 7 9 9 9 8 7 7 7 6 6 8 6 7 10 9 6 9 11 7 7 10 11 12 13 13 14 14 14 14 15 14 15 16 17 18 19 20
4 3 3 3 4 4 3 2 2 3 3 3 4 4 4 5 7 6 6 5 5 6 4 4 5 3 2 5 7 7 8 10 10 8 6 6 8 8 7 5 4 4 6 7 7 8 10 10 9 8 9 10 10 9 9 8 6 5 7 6 6 9 9 7 8 7 5 8 12 13 13 13 13 14 14 14 14 14 14 15 17 18 18 19 20
3 3 2 2 3 5 5 3 1 4 7 8 10 12 12 11 12 12 12 11 10 12 12 12 13 12 8 7 9 10 11 10 8 7 5 5 5 5 5 5 5 6 8 8 7 7 8 9 9 10 10 10 11 12 11 9 7 5 5 6 7 8 8 7 7 7 7 11 14 14 13 14 13 14 14 13 14 15 16 16 17 17 18 18 18
2 2 2 2 3 3 2 2 2 4 8 10 11 14 16 15 14 13 12 10 10 11 11 13 14 13 12 13 13 13 12 9 7 7 6 5 5 5 6 7 7 7 7 8 8 8 8 8 9 11 10 9 10 11 8 6 4 4 6 8 8 9 9 9 8 9 11 15 15 14 14 14 15 15 14 13 14 16 17 16 16 17 17 17 16
2 3 3 3 3 2 2 1 2 4 6 8 9 11 13 11 10 10 9 8 7 7 6 8 10 10 9 11 12 10 10 9 6 5 5 5 5 6 6 6 8 8 8 8 9 9 10 10 10 9 7 6 8 9 7 7 9 9 9 9 10 10 10 10 10 12 15 16 14 13 13 15 15 14 13 14 16 16 16 15 15 15 16 16 16
3 3 3 3 3 2 3 3 2 3 5 7 8 8 8 6 5 5 5 5 5 5 4 4 5 5 6 7 9 9 8 7 6 5 4 4 4 5 5 5 6 7 8 8 8 8 10 11 9 7 6 6 6 8 9 9 10 10 10 10 10 11 10 11 14 15 15 13 12 12 14 15 15 14 14 15 16 16 15 15 15 15 15 16 16
2 3 4 4 2 2 4 4 2 2 3 5 6 6 4 3 3 3 3 3 3 3 2 2 2 3 3 4 5 6 6 6 6 5 5 4 4 5 5 6 6 7 7 7 8 9 10 10 8 6 5 5 6 8 8 9 10 10 10 10 10 10 10 12 15 14 12 11 12 13 14 14 14 15 15 15 15 15 15 15 15 16 15 15 15
2 4 5 4 2 1 3 4 2 2 2 3 3 2 1 2 4 6 5 3 2 2 3 2 2 2 3 2 3 3 4 5 6 7 7 7 7 6 7 8 9 8 8 8 9 9 9 8 7 6 6 6 7 7 8 8 8 8 9 9 10 10 12 13 14 12 10 12 14 13 12 13 14 14 14 14 14 15 15 15 15 15 15 15 15
4 5 5 5 3 2 3 3 2 2 2 3 3 1 1 2 1 5 6 6 5 4 4 4 4 4 3 2 1 2 2 4 6 7 8 8 9 9 9 11 10 8 9 10 9 8 8 6 5 6 6 6 7 7 8 8 8 8 9 9 9 11 13 13 12 12 13 14 13 12 12 13 14 14 14 14 14 15 14 15 15 15 15 16 16
4 5 6 5 3 2 3 3 3 3 3 2 2 2 3 3 2 1 2 4 5 6 7 8 7 6 4 3 2 1 1 3 6 7 7 9 9 8 9 11 10 8 10 11 9 8 8 7 6 6 7 7 8 8 8 9 9 10 10 11 11 11 12 12 12 13 15 14 12 12 13 13 13 13 13 14 14 15 15 15 15 15 15 15 16
5 7 7 4 3 3 3 3 3 2 3 2 1 2 4 4 3 3 3 2 2 3 6 8 8 6 4 3 4 4 1 3 5 5 5 6 6 6 7 9 9 8 9 8 7 7 7 8 8 9 9 9 9 9 9 10 10 10 10 11 12 13 13 12 13 14 14 13 12 13 13 13 12 13 14 14 14 15 15 15 15 15 15 16 18
6 8 8 5 3 3 4 4 2 1 1 0 2 3 3 3 3 4 4 4 5 3 2 7 8 7 8 8 7 4 1 5 6 5 6 6 4 4 5 5 7 9 8 6 5 6 8 9 9 9 9 10 9 9 9 10 10 11 11 11 12 12 12 13 14 15 14 12 13 13 14 14 15 15 15 15 15 15 15 16 17 17 18 19 19
4 6 8 7 5 3 3 3 2 2 2 2 2 2 3 3 3 4 4 4 5 5 2 2 4 5 6 8 8 4 1 4 5 6 9 8 6 5 5 4 6 8 8 7 7 7 8 8 8 8 9 10 9 9 9 10 11 11 12 12 12 12 12 12 13 14 14 13 13 14 14 15 15 16 15 15 16 17 18 18 18 19 19 18 18
3 3 5 6 5 2 1 1 2 2 2 3 3 3 3 3 3 4 4 4 5 5 4 5 5 1 4 7 6 3 2 4 3 5 9 11 10 8 7 7 7 8 9 9 10 9 8 7 7 9 10 10 9 8 9 11 11 12 12 12 12 12 12 12 12 13 13 13 13 14 14 15 16 17 16 16 17 19 20 19 19 19 19 19 19
6 6 6 6 4 2 1 2 2 3 3 3 3 3 3 3 3 4 4 5 5 5 5 5 3 3 6 4 1 2 3 4 6 7 8 9 11 12 10 8 7 8 9 10 11 11 10 9 8 9 11 11 10 10 10 11 12 13 14 13 13 12 12 12 12 12 13 14 14 15 15 17 18 18 17 16 17 18 19 19 19 19 19 19 20
8 9 9 8 6 4 2 3 3 3 3 3 2 2 2 3 3 4 5 6 6 6 6 4 2 4 3 2 3 5 5 5 7 8 7 7 9 11 11 9 8 8 9 9 9 10 10 10 9 9 10 11 10 11 11 11 11 12 13 13 13 13 12 11 12 13 13 13 14 15 16 17 17 16 15 15 16 17 17 18 18 19 19 19 20
11 12 12 10 8 6 4 4 5 4 4 3 3 3 3 3 4 4 4 5 6 6 6 3 2 3 1 2 4 7 8 7 6 7 7 6 7 9 10 8 7 8 8 7 7 8 9 10 9 9 9 10 10 10 10 11 11 11 12 12 12 12 12 11 11 11 12 12 13 14 15 15 15 15 14 15 15 16 17 18 19 19 19 20 20
15 13 13 11 9 8 7 7 6 6 6 5 5 5 4 4 5 5 5 5 5 5 5 4 1 2 1 3 7 9 7 5 5 5 5 6 6 7 8 7 6 7 8 7 7 8 9 9 9 8 8 9 9 9 10 10 11 11 11 11 11 11 11 10 9 10 11 12 13 14 14 15 15 15 15 15 16 17 18 18 18 18 19 19 20
17 14 15 15 13 12 13 13 11 8 7 7 5 5 5 4 5 5 6 5 5 5 5 6 5 3 1 2 5 6 4 4 5 5 5 6 6 7 7 7 7 8 9 7 7 7 7 8 8 8 8 9 9 9 9 10 10 10 10 11 11 9 8 8 9 11 12 13 13 13 13 14 16 16 16 16 17 18 18 17 18 18 19 19 19
18 16 16 17 17 16 15 12 7 5 5 6 6 7 7 6 6 6 6 6 6 6 5 6 6 6 5 5 5 5 4 4 5 5 6 7 7 7 7 7 7 8 8 7 7 7 7 7 8 8 8 8 8 9 9 9 9 9 10 9 8 6 6 8 11 12 11 11 12 13 14 16 17 16 16 17 17 17 18 18 18 19 19 19 19
13 11 8 7 8 9 8 5 3 4 6 7 7 8 8 7 8 7 7 6 5 5 4 5 5 6 6 7 7 6 6 6 6 6 7 7 7 7 7 7 8 8 8 7 8 7 7 7 8 8 8 8 8 8 9 9 8 9 9 8 6 6 8 11 12 11 10 12 14 15 15 17 17 17 16 17 18 18 18 18 18 18 18 19 19
12 11 8 4 3 3 4 5 6 7 8 7 7 7 7 7 7 7 6 6 5 4 4 5 5 5 5 6 6 6 6 6 7 7 8 7 7 8 8 8 8 8 8 8 8 8 8 8 8 8 8 9 9 9 9 8 8 8 9 8 8 9 10 11 11 12 14 16 17 16 16 17 17 17 17 18 18 18 19 18 18 18 19 19 19
14 13 12 9 6 6 8 8 6 5 6 6 7 7 7 7 6 5 5 5 5 5 5 5 5 5 6 6 5 5 6 6 7 8 8 8 8 8 8 8 8 8 8 8 8 8 9 9 9 9 9 9 9 9 9 8 8 8 8 9 9 10 12 12 14 16 17 18 19 20 19 18 17 17 17 18 18 18 19 19 18 19 19 19 19
13 11 11 11 10 8 9 8 6 5 6 7 7 7 8 8 6 6 6 5 5 5 5 5 6 6 6 5 5 5 5 6 7 8 8 8 8 8 8 9 8 8 9 9 9 9 9 9 9 9 9 9 9 9 9 9 9 8 9 9 10 12 13 15 17 18 19 21 22 23 22 19 17 16 17 17 17 18 18 19 19 19 19 19 20
12 11 11 12 11 8 7 7 6 6 8 8 8 9 9 8 6 6 5 4 4 5 5 6 6 6 5 4 5 6 6 7 7 7 7 8 8 8 9 9 8 8 9 9 9 9 9 9 9 9 9 9 9 9 8 9 9 9 10 11 11 13 15 18 19 20 22 22 22 23 22 21 18 17 17 17 17 18 18 19 19 19 19 19 20
12 12 12 13 13 11 9 8 9 9 10 10 10 9 8 7 6 5 5 5 6 6 6 6 5 5 6 6 7 7 7 8 7 7 8 8 8 8 9 9 9 9 9 9 9 9 9 9 9 9 9 9 9 8 9 9 9 9 10 11 13 15 17 19 19 20 21 21 22 23 23 21 17 16 17 17 17 18 19 19 19 19 19 19 19
Wind_Direction
178 181 187 187 186 185 189 193 194 197 196 194 198 200 199 195 192 192 192 192 192 190 194 196 192 196 198 197 201 200 201 205 205 209 214 215 221 228 225 223 221 226 240 243 243 253 255 254 262 271 277 281 288 289 286 280 266 255 249 254 270 274 264 252 246 278 304 313 312 313 317 320 322 324 325 320 316 318 319 319 320 320 322 325 328
179 183 187 187 189 189 189 192 194 196 197 199 204 203 199 195 193 194 195 194 195 195 196 198 197 199 201 200 201 201 201 204 207 209 211 216 222 225 225 230 233 231 237 243 243 248 248 246 254 259 263 266 271 280 290 298 300 294 268 257 267 272 265 263 264 283 300 308 314 317 318 322 322 321 320 315 315 321 322 323 326 326 327 329 328
179 182 186 188 190 193 193 194 196 198 199 203 206 204 200 198 197 197 198 197 197 199 200 200 198 200 204 203 203 206 203 201 210 214 212 214 218 225 231 232 232 233 240 244 244 248 248 248 253 254 256 259 261 276 295 305 305 303 295 280 277 284 284 285 284 281 289 302 310 311 313 316 316 313 310 310 315 321 321 324 327 325 326 329 330
180 180 186 192 192 194 198 198 199 202 204 204 204 207 206 202 201 203 205 203 196 198 205 204 199 200 205 206 206 210 205 202 213 220 217 218 220 228 236 236 233 234 240 244 243 247 249 250 254 255 258 262 261 271 281 283 281 284 291 289 284 290 291 288 290 290 296 301 299 301 305 305 306 307 304 305 313 318 318 318 318 317 322 327 329
180 178 185 195 195 195 199 202 203 204 207 208 207 209 209 203 203 210 214 209 199 200 206 204 201 201 204 207 205 207 209 208 215 222 221 221 223 229 235 236 239 239 242 247 248 251 254 257 262 262 263 265 262 260 264 273 285 291 292 294 296 301 298 293 293 289 284 282 282 289 297 298 303 308 308 309 314 313 309 307 308 313 323 328 327
182 179 183 193 197 199 202 203 205 207 209 213 213 210 209 203 203 211 218 214 205 206 208 204 202 202 205 211 209 209 214 216 218 222 225 225 225 228 233 235 238 241 245 248 248 250 252 255 259 259 260 264 265 265 264 270 283 284 280 281 284 288 289 287 285 281 277 276 281 290 300 306 312 314 315 313 307 301 297 300 311 322 329 331 328
185 181 183 191 197 201 206 206 208 211 209 215 219 213 210 210 206 208 215 217 213 210 209 208 206 203 205 215 217 215 217 220 222 225 228 235 233 228 231 237 240 242 244 247 249 250 251 251 251 247 246 249 254 261 268 271 274 276 279 283 282 280 285 293 299 302 304 303 302 304 307 312 313 311 308 303 299 298 297 303 321 328 327 328 323
185 181 183 192 196 197 205 209 212 215 210 217 227 221 213 214 212 206 208 218 222 215 208 207 208 204 207 217 222 220 220 222 227 228 229 237 241 236 234 237 243 248 249 250 254 256 258 260 259 253 246 242 240 243 253 261 262 267 281 294 300 302 305 309 307 305 307 306 303 302 303 304 303 302 302 303 310 317 316 317 326 327 325 323 318
188 186 186 193 196 195 203 211 216 219 213 214 227 233 228 221 215 208 207 216 225 223 216 210 207 207 212 222 225 224 222 223 228 231 231 234 241 246 246 242 244 251 255 256 262 265 266 268 268 266 262 256 249 242 237 241 248 253 262 272 283 293 296 294 289 287 290 291 292 296 299 299 301 306 314 322 325 324 324 330 332 328 324 320 315
188 190 189 196 198 195 200 209 215 219 219 215 221 230 236 236 226 215 210 216 225 229 229 221 217 218 216 219 226 229 227 228 232 235 234 233 237 246 252 253 254 259 262 264 270 273 273 275 279 282 285 280 268 251 237 242 254 258 260 266 273 277 276 275 275 279 282 283 285 291 293 294 302 313 319 321 323 328 336 339 333 327 324 320 317
184 191 193 197 199 194 197 207 212 214 217 217 217 221 228 237 243 232 219 220 226 231 234 231 231 230 221 217 226 233 232 230 232 236 230 225 227 235 246 257 263 268 270 269 274 278 280 285 289 288 285 281 280 272 261 259 265 266 266 269 271 272 273 272 272 274 278 282 287 290 293 298 307 313 315 317 323 331 334 331 326 324 324 321 318
179 194 198 200 199 194 196 205 211 213 213 214 216 220 224 229 237 241 235 229 229 233 237 239 243 246 240 235 235 228 220 220 225 232 229 222 222 226 235 251 265 272 274 271 271 272 274 279 283 285 285 287 294 288 274 269 272 273 272 273 273 276 280 278 275 275 277 281 284 286 290 296 301 306 314 323 328 329 327 325 325 324 321 318 313
180 192 201 207 204 200 204 208 206 205 205 206 208 212 218 223 228 234 235 233 235 237 238 241 247 249 252 263 287 87 196 209 212 217 218 216 220 225 231 246 264 274 281 283 282 280 279 280 281 283 288 293 300 303 290 278 274 270 269 273 279 284 289 288 285 281 278 276 275 275 280 285 290 299 311 319 323 326 325 321 321 319 315 311 306
180 176 176 186 193 198 211 221 216 206 199 200 203 206 211 217 221 223 223 230 246 251 244 244 247 239 240 263 319 19 283 230 208 210 210 211 218 224 228 240 260 272 279 285 289 290 291 293 289 286 289 291 293 300 307 300 279 265 266 278 287 293 297 297 296 293 288 281 275 275 280 284 285 291 300 304 310 319 320 317 317 315 311 307 304
169 169 171 177 184 191 200 216 230 233 222 217 222 231 236 237 235 233 229 234 244 244 242 250 251 234 228 237 241 232 238 231 218 220 224 225 228 232 237 252 268 274 276 283 293 297 293 293 295 295 296 296 291 291 299 303 290 271 274 283 293 301 303 302 297 294 294 290 284 283 285 285 282 284 292 298 304 310 313 313 311 309 309 309 311
165 173 176 179 191 199 205 212 223 240 257 251 236 235 243 247 247 248 248 244 234 229 238 254 252 239 231 229 226 223 226 228 222 223 233 243 248 250 254 264 275 279 279 285 297 301 296 296 300 297 292 291 287 285 291 298 295 289 290 295 304 310 308 307 304 297 293 292 289 285 279 274 273 280 288 295 298 303 307 308 307 309 311 312 315
153 155 148 148 170 187 198 203 203 223 244 244 234 236 243 245 248 244 232 222 213 220 233 240 242 239 235 225 217 220 230 241 240 235 238 248 257 259 259 267 277 276 275 283 292 294 295 300 302 294 287 286 285 285 291 301 303 302 303 307 312 311 304 301 301 299 296 294 291 288 283 280 280 283 288 293 298 305 309 309 310 313 312 310 314
134 135 128 125 125 121 126 151 175 201 217 219 228 243 243 243 250 238 212 190 147 150 195 209 215 218 206 181 193 215 229 240 245 249 250 254 264 267 263 264 269 266 265 276 288 289 294 299 295 285 284 286 288 293 299 306 310 311 311 313 312 309 304 302 299 298 299 299 297 296 296 295 292 291 294 298 302 309 312 310 312 312 305 306 312
116 121 118 114 111 102 97 113 160 190 196 192 205 209 197 203 190 139 154 171 155 149 169 182 196 201 180 163 180 206 226 243 259 268 269 272 278 275 268 270 275 273 270 269 274 286 296 297 293 292 299 303 305 307 308 309 311 312 312 311 307 304 302 300 303 306 308 308 308 310 309 305 301 300 305 308 306 308 318 321 319 314 304 304 310
96 105 105 103 99 94 93 97 117 157 167 145 137 129 112 111 119 113 113 132 144 157 186 176 161 170 177 181 188 222 272 278 299 302 296 293 286 262 246 309 312 306 296 270 261 291 297 286 293 307 317 321 321 318 313 310 308 307 306 300 294 293 296 299 303 308 312 315 318 321 319 314 312 314 319 322 316 316 328 333 326 320 313 308 311
75 83 90 92 90 89 94 97 97 105 116 110 106 106 101 102 117 128 132 130 131 137 139 129 127 143 158 137 84 50 37 51 39 15 5 341 295 210 159 110 135 101 347 315 279 296 284 265 305 332 337 335 334 332 328 325 322 318 312 298 290 294 301 307 312 317 320 320 319 319 319 320 325 332 334 336 340 337 332 329 326 324 324 319 315
63 65 73 81 81 81 87 92 91 94 101 101 93 86 79 77 90 108 114 115 124 139 141 130 119 115 102 81 76 68 60 62 58 46 45 46 47 123 144 113 150 140 17 1 341 327 276 4 357 355 351 347 349 353 353 355 355 351 342 325 312 313 322 330 333 331 329 329 328 330 334 337 342 346 345 345 346 337 329 326 324 322 322 327 325
69 63 63 71 73 71 73 75 76 79 83 85 81 74 67 66 76 90 101 107 113 122 133 134 131 131 129 115 97 79 73 74 68 58 56 52 48 54 69 70 88 87 52 32 39 64 62 17 357 349 345 347 351 354 358 5 3 358 354 349 336 323 330 339 339 335 336 338 338 339 342 342 342 345 345 340 333 330 330 332 331 324 323 330 331
68 64 59 65 69 68 65 62 63 67 69 71 75 73 66 66 78 83 96 117 123 123 136 142 131 135 146 147 148 138 102 88 77 65 59 53 46 46 51 62 75 68 50 37 35 28 0 342 340 339 339 341 341 341 348 355 0 3 5 6 356 332 323 328 339 348 348 344 341 343 344 343 343 341 336 330 328 329 334 336 333 328 328 328 327
61 66 59 63 69 69 67 66 68 72 70 70 77 80 78 88 108 64 42 66 95 105 111 89 91 117 154 152 150 153 134 103 86 70 57 45 39 42 47 47 48 47 39 23 7 353 336 330 337 341 342 340 333 332 334 332 342 2 7 6 1 348 340 341 352 354 353 350 352 353 346 337 333 329 325 324 328 333 338 337 332 330 331 329 327
79 77 56 54 59 61 76 95 108 110 99 103 129 136 119 131 140 96 51 79 93 86 91 96 102 122 135 114 126 138 132 109 95 80 66 50 39 40 43 42 42 43 31 0 329 320 318 320 331 339 344 340 329 323 321 310 310 337 344 346 353 350 348 352 350 348 356 4 358 350 339 330 326 325 326 328 333 338 342 342 338 334 333 332 331
84 73 48 42 30 12 23 75 132 149 131 118 127 125 107 115 115 80 60 80 78 50 44 62 64 64 111 132 127 116 107 107 99 89 86 77 58 46 39 33 26 15 360 338 321 313 308 307 315 325 331 330 320 308 297 285 275 303 327 338 347 341 340 347 351 358 20 10 355 343 335 332 330 330 332 334 337 342 345 343 338 334 333 332 329
80 73 48 46 36 16 14 21 75 106 93 82 85 87 80 84 92 82 68 68 61 44 42 46 39 30 38 80 96 93 94 97 89 72 61 51 45 37 24 17 9 357 347 340 332 321 308 305 311 310 301 297 302 300 287 271 260 276 320 345 347 339 342 357 10 22 18 0 352 345 338 336 337 336 335 336 340 343 342 338 337 336 334 331 326
98 94 66 68 68 34 1 326 337 56 86 91 86 85 84 85 85 80 70 64 58 48 43 45 45 42 46 63 77 86 87 80 68 59 51 39 32 29 25 22 16 8 358 347 335 328 327 323 314 307 298 295 307 313 308 304 317 336 351 355 349 348 1 13 18 15 4 353 349 344 338 338 338 336 336 338 341 340 338 337 339 337 334 331 326
109 100 86 86 83 35 354 345 353 26 75 101 100 92 92 91 79 68 59 43 30 25 21 31 44 50 52 59 69 77 81 76 64 52 47 38 31 30 28 19 8 2 358 348 334 328 327 317 304 306 318 318 317 327 344 358 1 0 357 351 348 354 6 13 11 359 350 345 342 339 337 337 335 335 338 339 337 337 338 339 339 337 337 336 332
151 133 121 114 102 47 36 62 55 33 58 89 101 97 92 84 65 52 48 27 4 350 334 349 23 34 39 51 58 58 58 59 52 38 26 16 12 11 10 10 3 356 350 342 334 328 321 313 310 323 336 328 331 350 2 1 0 1 354 348 350 355 1 7 5 354 344 340 341 340 338 335 335 338 341 337 333 335 337 340 340 339 339 338 336
164 131 121 130 128 62 65 81 72 37 53 75 93 101 105 122 135 112 76 57 41 29 5 341 355 29 40 40 38 32 26 21 16 10 355 347 348 344 341 343 342 337 330 322 320 321 317 313 316 325 332 335 346 358 1 356 355 356 350 344 347 350 354 2 1 353 345 345 347 341 336 335 338 339 338 334 334 337 338 340 340 340 339 340 340
112 101 103 127 155 100 100 110 83 53 60 56 72 112 211 204 166 160 155 143 129 109 94 74 51 62 66 43 9 354 344 339 339 336 333 333 332 328 325 322 317 312 303 294 298 303 300 302 317 332 345 350 346 348 352 349 344 344 342 342 344 346 350 355 354 350 350 351 345 336 333 334 336 335 334 335 338 338 338 338 338 340 342 342 339
114 121 115 121 137 122 119 131 124 97 76 37 36 54 300 325 145 171 178 176 176 178 166 148 131 118 109 89 45 359 333 323 321 322 321 317 312 310 311 311 309 298 282 278 282 287 289 303 331 341 341 341 341 344 344 338 338 344 344 342 342 341 341 344 345 347 348 343 336 333 335 335 334 334 336 339 340 338 338 339 340 342 343 340 336
138 150 137 121 126 141 121 108 102 100 88 46 26 14 352 345 328 261 216 190 193 205 200 183 162 148 145 151 167 199 283 329 330 326 321 314 308 301 298 302 307 302 288 276 262 258 279 309 332 339 339 342 345 346 341 337 346 351 345 340 340 337 336 338 338 337 336 333 329 331 331 330 332 337 338 338 339 339 339 337 337 337 336 337 339
154 164 164 153 142 145 132 106 84 88 91 70 359 334 338 333 319 319 321 300 271 228 191 181 176 170 175 192 202 202 221 359 0 348 332 327 321 305 292 292 297 306 311 299 268 259 292 326 336 339 344 344 341 339 338 338 342 341 334 332 334 332 332 332 328 325 325 327 327 328 330 334 341 343 340 338 337 335 333 332 333 336 339 341 340
148 149 160 167 153 133 130 128 132 166 164 35 344 325 319 322 323 321 319 318 324 332 157 165 173 188 208 218 212 195 72 26 14 346 327 324 311 298 302 296 281 287 308 327 318 313 330 340 337 333 331 327 325 329 330 328 329 328 326 326 328 327 326 328 329 330 331 331 332 336 343 347 346 343 339 336 335 335 336 338 340 340 339 337 332
136 128 134 138 132 118 124 145 174 214 225 235 265 290 294 301 305 299 295 300 309 316 309 205 211 222 218 208 198 186 27 15 17 4 352 344 319 289 291 291 285 295 317 341 347 341 340 341 340 333 325 321 321 324 324 322 320 321 323 324 324 324 326 330 334 338 338 337 339 344 346 343 340 342 342 340 340 343 346 346 343 338 333 330 328
188 183 166 156 147 116 85 185 203 201 205 216 223 238 254 265 275 280 276 272 272 272 268 267 275 291 111 131 153 183 269 296 324 0 3 355 339 316 296 287 299 320 338 350 357 359 356 353 352 349 346 346 345 337 330 326 321 319 319 319 320 326 332 334 335 336 338 342 345 346 348 350 354 358 358 353 350 350 347 343 339 335 331 330 328
196 214 217 204 192 197 315 298 262 238 224 222 227 240 252 263 279 284 284 285 282 273 267 267 255 139 122 130 195 303 320 316 316 323 333 336 333 327 319 313 322 339 352 1 8 8 2 357 358 358 355 355 353 344 335 328 324 322 324 325 327 330 332 333 337 342 346 349 351 353 358 2 3 2 358 352 348 344 339 334 333 331 329 327 325
206 205 200 195 193 196 223 264 268 258 250 246 245 252 262 280 291 290 290 294 296 292 290 285 151 135 154 246 297 325 340 340 326 316 314 315 316 315 315 321 332 341 346 354 3 5 360 357 1 0 351 344 342 337 332 329 327 327 328 330 332 333 332 336 343 349 349 349 352 357 359 359 357 353 348 343 340 337 334 332 331 329 327 325 324
209 195 187 194 208 211 215 238 254 254 249 248 251 257 265 276 280 277 278 281 281 285 295 307 114 124 147 315 335 339 339 336 321 306 300 295 292 296 303 315 328 335 341 351 2 3 358 356 358 355 344 335 333 329 325 327 328 327 327 330 332 333 334 337 341 346 350 352 355 355 353 351 349 347 344 341 340 339 335 332 329 327 325 324 324
211 196 186 197 210 204 196 204 221 234 237 236 240 249 254 259 263 266 269 270 267 270 282 286 236 146 103 358 356 356 356 348 323 304 290 281 280 287 297 305 316 332 349 3 7 358 348 344 344 340 328 322 322 321 318 320 323 324 326 330 329 331 338 345 349 353 357 355 351 349 349 349 349 346 342 339 338 334 330 326 325 326 326 326 325
213 205 198 200 202 201 205 207 202 204 222 232 233 236 239 243 249 253 256 259 261 264 271 273 267 248 230 348 355 1 5 351 334 326 319 311 306 305 303 302 311 329 339 342 343 343 338 329 325 323 318 316 318 318 317 317 319 322 325 325 327 338 0 10 4 358 354 347 344 345 346 346 343 338 334 333 331 328 326 326 327 327 326 325 323
219 218 216 214 210 211 216 215 192 174 210 236 237 235 239 243 245 247 250 251 253 257 263 271 279 285 291 303 318 329 334 331 329 326 322 318 313 307 303 304 315 330 335 332 331 333 328 316 312 315 317 315 313 315 317 318 321 325 326 322 325 345 359 348 344 347 349 345 342 341 337 334 332 330 329 328 328 326 324 324 324 323 322 322 322
221 216 217 225 219 206 200 192 167 180 220 241 243 240 239 237 235 237 240 242 247 258 266 271 280 289 292 295 304 314 321 322 317 311 308 305 301 298 299 302 309 319 324 325 324 321 314 309 307 308 309 309 309 312 316 318 320 324 322 313 310 320 326 328 335 342 340 335 336 336 331 327 325 325 325 325 324 322 320 320 320 320 320 320 320
213 198 189 206 255 223 193 195 202 205 212 228 242 248 249 245 235 229 227 230 240 258 268 274 285 295 298 302 307 306 305 304 301 299 299 298 294 294 297 301 305 309 311 314 316 313 308 306 306 304 304 306 308 310 312 314 319 320 312 304 308 318 324 329 333 330 327 330 334 334 329 323 319 317 317 318 318 318 317 317 318 318 317 317 317
200 188 183 195 225 234 220 212 202 190 198 219 238 248 252 251 245 235 229 229 235 241 246 257 273 280 282 283 282 280 283 287 287 287 288 288 288 290 295 299 303 303 304 307 308 306 303 303 304 305 305 306 308 310 310 312 315 310 299 300 312 320 321 323 325 325 327 331 332 329 326 322 317 314 314 314 314 314 315 315 314 315 315 315 314
190 186 187 195 208 220 218 206 190 186 206 225 238 243 244 244 243 241 239 235 231 231 242 254 258 256 256 260 266 272 278 279 276 276 279 281 283 287 291 295 299 300 299 300 301 300 300 301 301 301 302 304 305 307 307 307 306 298 291 298 311 317 318 320 323 324 326 328 327 326 326 324 319 314 313 312 311 311 312 312 312 312 312 312 311
199 202 201 197 196 200 203 197 195 207 217 220 225 231 232 228 225 228 234 238 240 243 248 251 250 252 261 270 271 268 265 263 267 277 285 287 288 289 288 291 296 298 296 297 296 295 296 299 299 301 303 303 303 304 305 303 295 286 286 298 309 316 318 320 321 321 323 323 323 325 326 324 319 314 312 311 310 310 310 310 311 311 310 309 308
198 200 200 196 192 192 196 200 207 215 216 214 217 224 223 213 212 223 232 235 238 241 241 239 241 248 255 253 253 261 268 272 278 285 287 285 286 288 288 290 293 294 294 295 294 293 294 296 298 299 300 300 300 303 304 299 290 285 293 305 312 315 316 317 318 319 321 321 320 322 324 322 317 313 311 310 310 309 309 308 308 308 307 307 307
Height
828 831 832 834 835 837 839 840 841 842 843 844 845 847 848 849 850 851 852 853 854 855 856 857 857 859 860 861 862 862 863 864 865 865 866 866 867 867 867 867 867 867 867 867 867 867 867 867 868 868 868 868 867 867 867 867 867 866 866 867 867 867 866 866 867 866 865 865 864 862 861 860 859 858 857 855 854 853 852 851 850 849 847 846 846
827 829 831 832 834 835 837 839 840 841 842 844 845 846 847 848 849 850 851 852 853 854 855 856 857 858 859 860 861 862 862 863 864 865 865 865 866 867 867 866 867 867 867 867 867 867 867 867 867 867 867 867 867 867 867 866 866 866 866 866 866 866 865 865 865 865 864 863 863 862 861 860 859 857 856 855 853 853 851 850 849 848 847 846 845
825 828 829 831 833 834 836 837 839 840 841 843 844 845 846 847 848 849 850 851 852 853 854 855 856 857 858 859 859 860 861 862 863 864 864 864 865 865 866 865 866 866 866 866 866 866 866 866 866 866 866 866 866 866 866 866 866 866 865 865 865 865 865 865 864 864 863 862 862 861 860 859 858 856 855 854 853 852 851 850 849 848 847 846 845
824 826 828 830 832 833 835 836 838 839 840 841 843 844 845 846 847 848 849 850 851 852 853 854 855 856 856 857 858 859 860 861 862 863 863 864 864 864 865 865 865 865 865 866 866 866 866 866 865 865 865 865 865 865 865 865 865 865 865 865 864 864 864 864 864 863 863 861 861 860 859 858 857 855 854 853 852 852 850 849 848 847 846 845 844
822 825 827 829 830 832 834 835 836 838 839 840 841 842 844 845 846 847 848 849 850 851 852 853 854 855 855 856 857 858 859 860 861 861 862 863 863 864 864 864 865 865 865 865 865 865 865 865 865 865 864 864 864 864 864 864 864 864 864 864 864 864 864 864 863 862 862 861 859 858 858 857 855 854 853 852 851 850 849 848 847 846 845 844 843
821 823 826 828 829 831 832 834 835 836 838 839 840 841 843 844 845 846 847 848 849 850 851 852 853 854 855 855 856 857 858 859 859 860 861 861 862 863 863 863 864 864 864 864 864 864 864 864 864 864 864 864 863 863 863 862 862 862 863 863 863 863 863 862 862 861 860 860 858 858 857 856 855 854 853 852 850 848 847 846 846 845 844 843 842
820 822 824 826 828 830 831 833 834 835 836 838 838 839 841 843 843 845 846 847 849 849 850 851 852 853 854 855 855 856 857 858 858 858 859 860 860 861 862 862 862 862 863 863 863 863 862 862 862 862 862 862 862 862 862 862 862 862 862 862 862 862 861 861 861 860 860 859 858 857 856 856 855 853 851 850 849 847 846 845 844 844 843 842 841
818 820 823 825 827 829 831 832 833 834 835 836 837 838 839 841 842 843 845 846 847 848 848 850 852 852 853 854 854 855 856 857 857 857 858 859 860 860 861 861 861 861 862 862 861 861 861 861 861 860 860 860 860 860 861 861 861 861 861 861 861 861 860 860 860 860 859 858 858 857 856 855 854 852 850 849 848 847 846 845 844 842 842 841 840
817 819 822 824 826 828 830 831 832 833 834 835 836 837 838 840 841 842 843 845 846 847 847 849 851 851 852 853 853 855 855 856 856 856 857 857 858 859 860 860 860 860 860 861 861 860 860 860 860 859 858 858 858 859 859 860 860 860 860 860 860 860 860 860 859 859 858 857 856 856 855 854 852 851 850 849 848 847 846 844 843 842 841 840 839
817 819 821 823 825 827 829 831 832 833 833 834 835 836 837 839 840 841 842 844 845 846 846 847 849 849 850 851 853 853 854 854 854 854 855 856 857 858 858 858 859 859 859 860 860 860 859 859 858 858 858 858 858 858 858 858 858 858 858 858 858 858 858 858 858 857 856 856 855 855 853 852 852 851 850 849 848 847 845 844 843 841 841 839 837
816 818 820 823 825 826 828 830 831 832 833 833 834 835 837 838 839 840 841 843 844 845 846 846 847 848 849 850 851 851 851 852 853 853 853 854 855 856 857 857 857 858 858 858 859 859 859 859 858 857 857 857 857 857 857 857 857 857 857 857 857 857 857 856 856 856 855 855 854 854 852 851 851 850 850 849 848 846 845 844 843 842 840 839 836
816 819 822 824 825 826 828 829 830 831 832 833 834 835 836 837 838 839 840 842 843 844 845 846 847 847 848 848 849 849 849 849 850 851 852 852 853 854 855 856 856 857 857 857 858 858 858 858 857 857 857 856 856 856 855 855 855 855 855 855 855 856 855 855 855 854 854 854 853 852 852 851 850 850 849 848 847 846 845 844 843 842 841 839 837
816 820 823 826 826 826 828 828 829 831 832 833 834 835 836 837 838 839 840 842 843 844 846 847 847 847 847 847 847 847 847 848 848 849 850 850 852 853 854 855 855 856 856 856 856 857 856 856 856 856 856 855 855 855 854 854 854 854 854 854 854 854 854 854 854 854 853 853 852 850 850 850 849 849 849 847 846 845 844 842 842 841 840 839 837
814 817 821 824 825 827 828 829 830 831 831 833 834 835 836 836 838 839 841 842 844 845 846 846 846 846 846 846 846 846 847 848 848 849 849 850 851 851 852 854 855 855 856 856 856 855 855 855 854 854 855 854 853 854 854 853 853 853 853 853 852 853 853 853 852 852 852 851 850 849 849 849 849 848 847 846 845 844 843 841 840 839 838 837 835
814 817 819 821 823 824 826 829 831 832 832 833 834 835 836 836 838 839 841 844 846 847 847 847 846 845 845 846 846 846 847 848 848 849 849 849 850 851 852 852 853 854 855 855 855 854 853 853 853 852 853 853 853 853 852 852 852 852 851 851 851 852 852 851 851 850 850 849 849 848 848 848 848 847 846 845 844 843 842 840 839 837 836 834 833
814 818 820 821 822 823 824 827 829 832 834 835 834 834 835 836 837 839 841 844 845 845 847 847 846 845 845 845 845 845 846 847 847 847 848 849 849 850 851 851 852 853 854 854 854 853 852 852 852 851 851 851 851 851 851 852 851 851 850 850 850 851 851 850 850 849 849 848 848 847 847 846 846 845 844 843 842 841 840 839 838 836 835 833 832
815 816 818 820 822 822 823 825 827 830 833 834 834 834 835 836 837 838 840 842 842 842 844 844 844 844 844 844 844 845 845 846 846 846 847 848 848 849 850 850 851 852 852 852 852 851 851 851 851 851 850 850 850 850 850 850 850 850 849 849 849 850 850 849 848 848 848 847 846 846 845 845 844 843 843 842 841 840 838 837 836 836 834 833 831
817 816 817 819 820 821 823 824 825 828 831 831 833 834 834 835 836 836 838 840 841 841 842 842 843 844 844 844 844 845 845 845 845 846 846 847 847 848 848 849 849 850 850 851 851 851 850 850 850 850 849 849 849 849 849 849 849 849 849 848 848 848 848 847 846 845 845 845 844 844 843 843 842 841 841 841 840 838 837 836 836 835 834 833 832
819 818 817 818 819 821 822 824 826 827 829 830 832 833 833 835 836 836 838 840 841 842 842 842 843 843 843 844 844 845 845 844 845 845 845 846 846 847 848 848 848 849 849 849 850 850 850 849 849 849 849 849 849 849 849 849 849 849 849 848 848 848 847 845 845 844 843 843 842 842 841 840 840 839 839 839 837 837 836 835 835 834 833 833 832
820 820 818 818 819 821 822 825 826 827 828 830 832 833 833 835 836 836 836 838 839 841 842 842 842 843 843 844 844 845 845 844 845 845 845 845 845 846 847 847 847 848 848 848 849 850 850 849 848 849 849 848 848 848 848 848 848 848 848 848 847 847 846 845 844 843 842 842 841 840 839 838 838 838 838 837 836 836 835 834 834 833 832 831 831
823 822 821 820 822 823 824 826 827 828 830 832 833 834 834 835 837 836 836 837 838 841 842 842 842 843 843 843 844 845 845 845 845 845 845 845 845 846 847 847 847 847 847 848 849 849 849 848 848 848 848 848 848 848 847 847 847 846 846 846 846 845 844 844 843 842 842 841 841 840 839 838 837 837 837 836 836 836 835 834 833 832 831 831 830
825 826 825 825 825 826 826 827 828 830 832 833 833 834 834 836 837 837 837 838 840 842 843 843 843 843 843 844 845 845 846 846 846 847 847 846 846 846 847 846 846 847 847 848 849 849 848 848 848 848 848 847 847 847 847 846 846 845 845 845 844 844 843 842 842 841 841 841 840 840 838 837 837 837 836 836 836 835 834 833 832 831 831 830 829
828 829 829 829 829 829 829 830 830 832 833 833 833 834 835 837 839 840 839 840 841 843 844 843 844 845 845 846 846 847 847 848 848 849 848 847 847 847 847 847 846 846 847 848 848 848 848 848 848 847 847 847 847 847 846 846 845 845 844 844 843 843 842 841 841 841 841 841 840 839 838 838 837 837 836 836 835 835 834 832 831 831 830 829 828
830 831 831 831 830 831 831 832 833 835 834 834 834 834 836 839 841 842 841 841 842 843 843 844 844 845 846 846 847 848 849 849 850 850 849 849 849 849 848 848 847 847 847 847 847 847 848 848 848 847 847 847 847 846 846 845 845 844 844 843 843 842 841 841 841 841 841 841 840 839 839 838 838 837 837 836 835 834 833 832 831 830 829 828 827
832 833 832 831 831 832 832 833 835 836 836 836 836 836 838 841 843 843 842 842 842 843 843 843 844 844 845 846 846 848 849 849 850 850 850 850 850 850 849 849 848 848 848 848 848 848 848 848 848 847 847 846 846 845 845 845 844 844 843 843 842 841 841 841 841 840 840 840 840 840 839 839 838 837 837 836 835 833 832 831 830 829 828 826 825
833 834 833 832 831 832 833 835 836 836 836 836 837 837 839 841 843 844 843 843 843 843 843 844 844 845 845 845 846 848 848 849 850 850 850 851 851 851 851 850 850 850 849 849 849 849 849 848 847 847 846 845 845 844 844 843 843 843 842 842 842 842 841 841 840 840 840 840 840 840 839 839 838 837 836 835 834 833 831 830 829 827 826 824 823
835 835 834 833 833 834 835 836 836 837 837 837 838 839 841 842 843 844 844 844 844 844 844 844 845 845 845 846 847 848 848 849 850 850 851 851 851 852 852 851 852 851 851 851 850 849 849 848 847 846 846 845 844 843 843 843 842 842 842 842 842 842 841 841 840 840 839 840 840 839 839 838 837 837 836 834 833 832 831 830 829 827 826 824 823
836 836 836 835 834 835 835 836 836 837 837 838 839 840 841 843 844 844 845 845 845 845 845 845 846 846 846 846 847 848 849 850 850 851 851 852 852 853 853 853 853 852 852 851 850 849 849 847 847 846 845 844 843 842 842 842 842 842 842 842 842 842 841 840 840 839 839 839 839 839 838 838 837 836 835 834 833 832 831 830 828 827 826 825 823
837 837 837 837 836 836 836 836 836 837 838 838 839 841 842 843 844 845 846 846 846 846 847 847 848 848 847 847 848 849 850 851 852 852 852 852 853 853 853 853 853 853 852 852 850 849 848 847 847 846 845 844 843 842 841 841 841 842 842 842 842 842 841 840 840 839 839 839 839 839 838 837 836 835 834 833 832 831 830 829 828 827 826 825 823
837 838 838 838 838 837 837 837 837 838 838 839 840 841 843 844 845 846 847 847 847 847 848 848 849 849 849 849 850 850 851 852 853 853 853 853 853 853 853 854 854 853 853 852 851 850 849 848 847 846 845 845 844 843 842 842 842 842 842 842 842 842 841 841 840 840 840 839 839 839 838 837 836 835 834 833 832 831 830 829 828 827 826 825 823
838 838 838 839 839 838 838 838 838 839 840 840 841 842 843 845 846 846 847 848 848 848 848 849 849 850 850 850 851 851 852 853 853 854 854 854 854 854 854 854 854 854 853 852 851 850 849 848 847 846 846 845 845 844 844 844 844 844 844 844 843 843 842 842 841 841 841 840 840 839 838 837 836 835 833 833 831 830 830 829 828 827 826 824 823
837 838 838 839 839 839 839 839 839 840 841 841 842 842 843 845 846 846 847 848 848 848 848 848 849 850 850 851 852 852 853 853 854 854 854 854 854 854 854 854 854 854 853 852 851 850 849 848 847 846 846 846 846 846 846 846 846 846 845 845 845 844 844 843 842 842 842 841 840 839 838 837 836 834 833 833 831 830 829 828 827 826 825 824 823
837 838 839 840 840 840 840 841 841 841 841 842 843 843 844 844 845 846 847 847 847 848 848 848 849 850 850 851 852 852 853 853 854 854 854 854 854 854 854 854 853 853 852 851 850 850 849 848 847 847 847 847 847 847 847 847 847 847 846 846 846 845 845 844 843 843 842 841 840 840 838 837 836 835 833 832 831 830 829 828 827 826 825 824 824
837 838 839 840 840 841 841 841 842 842 842 843 843 843 844 844 845 845 846 846 847 848 848 848 849 849 850 851 851 852 853 853 853 853 853 853 853 853 853 853 852 852 851 850 850 849 848 848 847 847 847 847 847 847 848 847 847 847 847 847 846 846 845 845 844 843 842 841 841 840 838 837 836 834 833 832 831 831 830 828 828 827 826 825 824
838 839 839 840 840 841 841 842 842 842 843 843 843 844 844 844 844 845 845 845 846 846 847 848 849 849 850 850 851 851 852 852 852 852 852 852 852 852 851 851 851 850 849 849 848 848 848 847 847 847 847 847 847 848 848 848 848 847 847 847 847 846 846 845 844 843 842 841 840 839 838 837 835 834 834 833 832 831 830 829 828 827 826 825 824
838 839 839 840 841 841 841 842 842 842 843 843 844 844 844 844 844 844 844 845 845 845 846 847 848 849 849 849 850 850 851 851 851 851 851 851 851 850 850 850 850 849 849 848 848 848 848 847 847 847 847 848 848 848 848 848 848 848 848 847 847 846 846 845 844 843 841 841 840 838 837 836 835 834 834 833 832 831 830 829 828 827 826 825 824
837 838 839 840 840 841 841 841 842 842 842 843 843 843 843 844 844 844 844 845 845 845 845 846 847 847 848 848 849 850 850 850 850 850 850 850 850 850 850 850 849 849 848 848 848 848 848 848 848 848 848 848 848 848 848 849 849 848 848 847 847 846 845 844 843 842 841 840 839 838 837 836 835 834 834 833 832 831 830 829 828 827 826 825 824
837 837 838 839 840 840 841 841 841 841 842 842 843 843 843 844 844 844 845 845 845 845 845 846 846 846 846 846 848 849 850 849 850 850 850 850 849 849 849 849 849 849 848 848 848 848 848 848 848 849 849 849 848 848 848 849 849 848 848 847 846 845 845 844 843 842 841 840 839 838 837 837 836 835 833 833 832 831 830 829 828 827 826 825 824
837 837 837 838 839 840 840 841 841 841 842 842 842 843 843 844 844 844 844 845 845 845 845 845 846 846 846 846 848 849 849 849 849 849 849 850 849 849 849 849 848 848 848 848 848 848 848 848 848 848 849 849 848 848 849 848 848 848 847 847 846 845 844 844 843 842 841 840 839 839 838 837 836 834 834 833 833 832 831 831 830 829 827 826 825
836 836 837 837 838 839 840 840 841 841 841 841 842 842 842 843 843 844 844 844 844 844 844 845 845 845 845 846 847 847 848 848 848 849 849 849 850 850 849 849 848 848 848 848 848 848 849 849 848 848 849 849 848 848 849 849 848 848 847 846 845 845 844 844 843 842 841 841 840 839 838 837 836 836 836 835 835 834 833 832 831 830 828 827 825
835 835 836 836 838 838 839 840 840 840 840 841 841 841 842 842 843 844 844 844 844 844 844 844 844 844 845 846 846 846 847 848 848 848 849 849 850 850 849 849 849 849 849 849 849 849 850 849 849 848 849 849 849 849 849 849 849 848 847 846 846 845 844 844 843 842 842 841 841 840 839 839 838 838 837 837 836 835 834 833 831 830 828 827 825
833 834 834 835 836 837 837 839 839 839 840 840 841 841 842 842 842 843 844 844 844 845 844 844 844 844 845 845 846 846 847 847 848 848 848 849 849 849 849 849 849 849 849 849 849 849 850 849 849 849 849 850 850 850 850 849 849 848 848 847 846 845 845 844 843 843 843 842 842 841 840 840 839 839 838 837 836 835 834 832 831 829 828 826 824
832 832 832 833 835 835 836 837 838 838 839 840 840 841 841 841 842 842 843 843 844 844 845 845 844 844 844 845 845 846 846 847 847 847 847 848 848 848 848 849 849 849 849 849 849 849 849 849 849 849 850 850 850 850 850 850 849 848 848 847 846 846 845 844 844 844 843 843 842 842 841 840 840 839 838 837 836 835 833 832 830 829 827 825 824
830 830 831 832 833 834 835 835 835 836 838 839 840 840 840 840 841 841 842 842 843 844 844 845 845 844 844 845 845 845 846 846 847 847 847 847 848 848 848 848 849 848 848 848 849 849 849 849 849 850 850 850 850 850 850 850 849 848 848 847 846 845 844 844 844 844 844 843 843 842 842 841 840 839 838 837 836 834 832 831 829 828 827 825 824
829 829 830 831 831 832 833 833 833 835 837 839 840 840 840 840 840 841 841 842 842 843 844 844 844 844 844 845 845 845 846 846 847 847 848 848 848 848 848 849 848 848 848 848 848 848 849 850 850 850 850 850 850 850 850 849 849 848 848 847 845 844 844 844 844 844 844 844 843 843 842 841 840 839 838 836 835 833 832 830 829 827 826 825 823
828 828 829 830 830 831 832 832 833 834 837 839 840 840 840 840 840 840 841 841 841 842 843 843 844 844 844 844 845 845 845 846 846 847 848 848 848 848 849 849 848 849 849 848 848 848 849 849 849 849 849 849 849 849 849 848 848 848 847 845 844 844 844 844 844 843 843 843 843 842 842 841 839 838 837 835 834 833 831 830 829 827 826 824 823
827 827 827 829 830 831 831 832 833 835 837 839 839 839 839 839 839 839 840 840 841 842 843 843 844 844 844 844 845 845 845 846 847 847 848 848 848 848 848 848 848 848 848 848 848 848 849 849 848 848 848 848 848 848 847 847 847 847 845 843 843 844 844 843 843 842 842 842 842 841 841 839 838 837 836 835 833 832 830 829 828 826 825 824 822
825 826 827 828 830 831 832 832 833 834 836 837 838 839 839 839 838 838 839 839 840 842 842 843 844 844 844 845 845 845 846 846 847 847 848 848 847 848 848 847 848 848 848 848 848 848 848 848 848 847 847 847 846 846 846 845 846 845 843 842 843 843 843 842 842 841 841 841 840 840 839 838 837 836 834 833 832 831 829 828 827 825 824 822 820
824 826 827 828 830 831 831 832 833 834 835 836 837 838 838 838 838 838 838 839 840 841 842 842 843 843 843 844 844 844 845 846 846 847 847 847 847 847 847 847 847 848 847 848 848 847 847 847 847 846 846 846 845 845 845 844 844 843 842 841 842 842 841 841 841 840 839 839 839 838 837 836 835 834 833 832 831 830 828 827 825 824 822 820 818
824 825 826 827 828 829 830 831 832 833 835 836 836 837 837 837 837 838 838 839 840 841 841 842 842 843 843 843 843 844 844 845 845 845 846 846 846 847 847 847 847 847 847 847 847 847 847 846 846 845 845 845 844 844 844 843 843 842 841 841 841 840 840 839 839 838 838 838 837 836 836 835 834 833 832 831 830 828 827 825 824 822 820 819 817
824 825 826 826 827 828 830 831 832 833 834 835 835 836 836 836 836 837 838 839 839 840 840 841 841 842 842 843 843 843 843 843 844 844 845 845 846 846 846 846 846 846 846 847 846 846 846 845 845 845 845 844 844 844 843 842 841 840 840 840 840 839 839 838 837 837 837 836 835 835 834 833 832 831 830 829 828 827 825 824 822 820 819 817 815